Tracking 23611 objects as of 18-Sep-2021
HD Live streaming from Space Station
objects crossing your sky now
Track INSPIRATION-4

PALAPA B4

Track PALAPA B4 now!
PALAPA B4 is classified as:


NORAD ID: 21964
Int'l Code: 1992-027A
Perigee: 35,867.0 km
Apogee: 35,906.1 km
Inclination: 11.5 °
Period: 1,440.8 minutes
Semi major axis: 42257 km
RCS: 12.5892 m2 (large)
Launch date: May 14, 1992
Source: Indonesia (INDO)
Launch site: AIR FORCE EASTERN TEST RANGE (AFETR)

Palapa B-4 was an Indonesian communications spacecraft launched by a Delta rocket.
aabbcc
Your satellite tracking list
Your tracking list is empty




NASA's NSSDC Master Catalog

Two Line Element Set (TLE):
1 21964U 92027A   21261.45777862 -.00000310  00000-0  00000+0 0  9994
2 21964  11.5198  28.8924 0004630  28.4076  51.7450  0.99941573107199
Source of the keplerian elements: AFSPC